Wind_Speed
56 56 55 62 67 74 78 82 86 88 92 92 82 81 76 78 85 84 83 87 90 94 95 94 88 83 80 74 69 66 74 72 66 63 69 66 60 58 49 47 53 35 50 50
62 53 56 55 60 63 75 82 76 82 90 95 89 84 81 79 77 81 83 86 88 89 89 95 94 88 85 80 76 71 78 78 72 70 73 73 66 62 56 60 48 56 60 53
57 59 60 51 53 57 62 70 73 72 81 87 89 88 87 84 83 81 82 82 88 87 87 86 94 93 90 86 83 78 77 85 82 77 74 75 71 64 59 58 57 49 64 55
60 62 58 48 43 48 51 52 61 66 69 74 86 85 87 91 92 91 84 81 85 89 89 87 89 95 94 92 91 86 81 83 85 84 77 74 77 72 71 69 61 65 68 67
65 64 61 47 33 44 45 47 48 58 61 66 73 80 87 97 95 91 87 87 83 88 91 94 90 92 98 98 96 92 90 85 88 84 82 82 78 79 76 68 60 59 64 68
69 61 63 50 33 38 41 43 45 46 51 49 67 81 84 100 107 107 108 107 106 104 101 98 96 95 99 104 103 99 96 89 88 84 82 79 81 77 77 74 66 58 63 68
69 59 62 53 36 33 35 43 43 41 43 56 66 75 85 93 96 102 107 106 106 102 101 102 109 104 100 103 104 103 99 94 91 85 86 82 81 81 78 65 64 62 65 65
67 60 60 54 37 25 37 38 44 41 44 48 54 68 84 82 95 99 103 108 106 102 98 94 97 98 99 103 105 106 103 99 92 91 85 86 83 84 86 82 69 66 66 68
63 57 49 58 48 29 34 35 43 42 43 46 61 68 81 80 90 98 104 106 110 107 104 97 97 95 95 97 103 105 105 102 94 95 91 83 84 82 82 81 81 74 72 65
65 47 51 49 49 34 28 38 38 43 46 47 55 65 72 73 83 93 99 104 108 109 106 103 101 99 98 96 98 103 107 106 99 95 96 91 78 85 82 82 83 78 77 70
66 54 47 46 45 38 24 36 39 44 48 49 57 56 62 68 76 85 94 101 107 106 108 108 105 103 103 100 99 98 103 106 104 95 93 97 85 75 86 84 84 80 83 72
61 48 39 41 44 39 25 31 40 44 48 52 52 52 59 61 65 78 88 96 105 108 108 109 108 103 103 101 98 101 100 105 106 103 96 90 95 84 83 88 88 86 88 80
62 46 35 36 37 35 32 29 42 47 49 52 51 43 53 55 58 73 83 90 98 106 107 106 106 103 103 104 103 102 100 105 109 105 104 96 92 88 86 80 87 88 86 84
64 47 36 33 32 30 29 23 41 46 48 44 46 46 52 50 56 66 76 84 88 99 109 106 105 101 104 106 104 105 102 98 106 106 104 100 94 88 87 77 79 84 92 87
63 49 39 31 28 24 24 29 39 45 44 43 46 45 50 47 53 60 68 77 86 92 104 108 106 100 102 105 106 106 103 102 100 104 104 100 97 93 77 84 78 82 81 88
63 52 40 32 25 19 19 31 34 40 41 45 45 45 46 47 50 55 63 74 82 88 94 104 109 103 99 106 105 105 106 106 106 99 103 103 100 99 92 81 79 76 82 80
63 51 39 30 23 18 17 26 29 38 39 44 45 44 43 46 49 55 62 71 80 90 90 99 110 107 103 106 107 104 108 109 105 106 101 98 99 101 99 91 82 81 78 76
64 50 42 31 23 22 18 22 32 37 39 42 44 45 45 47 52 61 66 74 82 91 91 96 103 107 106 107 109 108 104 108 106 103 102 96 91 106 103 101 91 84 81 76
67 53 42 32 25 20 18 19 27 34 36 41 43 46 45 49 53 61 68 74 82 88 88 94 100 103 107 106 106 107 107 104 108 107 104 106 108 95 99 99 96 92 85 79
66 58 45 33 25 20 16 18 30 34 33 40 44 46 47 51 55 64 68 74 79 82 86 91 93 103 101 106 108 107 106 107 107 111 113 116 114 110 101 98 97 97 93 85
67 58 48 36 25 21 16 17 26 30 35 39 43 46 47 52 58 66 68 72 75 78 79 85 91 96 103 104 107 108 107 106 106 110 109 107 105 113 108 104 102 100 101 98
71 61 51 41 30 20 18 16 18 29 36 39 45 48 50 51 58 67 71 75 68 75 76 82 89 92 96 100 104 107 105 106 106 108 109 107 103 107 111 108 107 103 104 105
76 66 57 45 35 24 18 18 21 27 37 39 43 50 53 51 57 68 73 78 80 73 75 80 86 95 96 99 100 105 113 106 108 105 107 108 108 104 108 110 108 105 106 107
78 67 56 46 37 26 18 18 21 27 35 42 45 49 54 53 57 63 71 79 83 82 73 71 83 86 92 101 100 101 100 101 102 97 107 109 110 111 106 110 112 111 105 110
81 70 58 48 40 30 24 15 21 27 34 41 45 48 54 54 59 61 69 73 84 84 76 66 68 84 89 96 100 98 104 105 110 112 102 108 109 108 112 108 107 110 116 115
84 73 62 51 40 35 24 18 16 26 32 38 45 50 56 64 63 62 70 74 80 87 85 85 81 77 87 96 99 101 104 106 112 107 105 102 107 108 109 113 109 111 110 109
Wind_Direction
298 290 280 275 265 256 257 253 250 245 242 240 236 231 229 232 234 229 228 229 226 224 226 226 225 221 223 224 224 221 222 224 223 218 216 218 215 216 216 218 233 237 239 228
305 293 285 279 272 261 251 252 250 246 241 242 236 230 227 228 232 231 227 227 226 223 223 224 224 221 220 221 222 220 219 221 224 221 220 222 222 219 218 206 212 207 231 232
312 301 295 289 276 264 257 249 250 245 243 241 237 231 227 226 228 231 227 226 227 223 220 222 223 221 216 217 219 218 219 217 219 222 220 219 224 226 227 222 227 217 230 225
317 307 300 295 283 272 264 254 245 247 241 239 238 232 227 225 225 226 226 224 226 225 220 218 221 220 215 214 215 217 215 219 217 220 222 221 224 223 225 227 226 226 228 233
322 313 306 302 286 273 265 260 248 242 241 235 237 232 227 225 225 225 225 226 224 226 222 216 217 219 216 212 211 214 213 213 218 217 221 223 224 226 228 232 232 233 229 236
326 317 305 301 294 272 268 261 253 244 239 232 230 233 224 225 221 220 219 218 217 217 215 215 212 215 216 213 210 211 215 209 217 215 216 221 225 225 228 233 235 236 229 229
328 320 303 301 300 274 259 259 253 243 233 227 225 229 225 225 225 222 222 222 223 222 221 214 207 209 213 213 212 210 212 210 213 213 216 215 221 222 225 225 232 235 232 233
329 323 305 301 299 275 265 249 253 242 233 232 229 228 230 220 225 224 222 222 221 221 223 221 220 214 212 209 212 211 211 213 211 214 211 216 217 221 226 226 229 231 234 234
325 324 307 301 296 285 259 249 248 245 236 227 224 222 229 220 220 221 220 221 220 219 220 216 218 216 216 215 213 210 211 211 214 213 213 214 215 219 223 228 229 230 233 232
327 321 312 299 293 288 259 249 237 243 237 228 229 221 225 222 219 222 221 219 220 219 218 216 215 213 213 213 215 214 212 212 213 215 215 214 218 220 221 226 226 231 232 228
330 322 313 300 291 282 260 247 235 234 237 231 230 227 225 225 220 219 221 220 219 218 217 218 216 213 209 210 212 213 213 214 213 213 216 215 213 222 223 224 227 231 230 226
334 328 315 299 291 285 267 237 238 231 231 235 233 222 225 222 219 219 221 220 218 216 217 217 217 213 210 208 212 211 212 214 215 214 213 215 214 219 225 228 232 233 233 228
337 332 320 298 287 284 272 239 234 231 229 230 232 226 230 225 216 219 218 221 219 216 215 215 217 213 210 208 210 212 211 212 215 216 217 215 216 216 221 227 231 231 234 230
338 338 328 306 291 280 271 244 234 234 232 228 231 229 231 226 220 217 218 219 219 217 215 215 216 213 211 208 210 210 209 212 215 217 218 216 215 216 221 224 230 231 232 232
341 340 333 315 299 282 258 231 229 232 229 224 229 228 229 225 219 216 214 215 218 218 215 214 216 214 211 210 209 209 209 210 212 216 219 218 216 212 216 221 228 233 233 235
342 344 338 326 310 286 255 238 232 233 227 221 224 225 226 222 216 211 208 211 214 217 215 213 214 215 211 211 210 209 209 211 211 212 217 220 220 216 213 217 219 226 232 233
347 346 344 331 311 286 252 237 230 229 224 220 221 220 221 219 213 207 206 208 212 214 213 211 212 214 212 210 210 209 209 211 211 212 215 219 225 221 218 214 216 222 227 231
350 350 346 334 317 296 269 234 225 224 219 218 218 218 216 211 210 206 205 207 211 214 215 210 210 212 210 209 210 210 210 211 212 212 214 212 220 220 221 217 215 218 224 229
350 351 349 339 326 310 289 239 224 229 221 217 216 218 217 210 208 208 208 207 212 216 210 215 211 210 209 208 210 211 211 212 212 211 210 212 218 218 218 217 216 216 221 226
354 351 351 347 333 319 291 250 230 223 216 219 216 214 219 212 207 208 210 210 209 216 215 213 212 213 210 209 209 211 212 213 213 215 215 216 221 223 221 222 218 217 217 219
357 353 351 349 342 324 298 266 248 231 210 215 218 216 217 214 206 209 208 210 211 212 212 213 212 212 212 210 210 212 212 213 214 217 218 220 221 223 223 223 223 218 219 219
357 356 353 350 347 332 305 269 243 243 224 215 213 215 218 215 210 209 207 209 204 209 211 213 213 211 212 213 213 214 214 215 217 217 218 220 222 223 223 224 226 224 220 223
356 357 354 350 345 339 313 282 243 226 227 222 217 214 218 216 214 211 211 207 205 203 209 210 216 213 211 210 214 214 217 216 219 219 218 219 221 222 224 224 225 227 226 224
355 355 354 350 342 338 328 288 258 233 227 222 217 218 219 216 215 215 214 212 210 212 209 210 214 216 213 212 214 217 217 220 220 224 225 222 220 221 223 225 225 226 228 228
353 353 354 351 343 336 327 300 268 244 231 227 224 217 226 221 218 219 216 216 211 212 207 209 212 214 213 215 213 218 217 218 218 221 222 224 223 223 223 224 226 228 228 229
352 351 350 349 347 336 330 311 269 255 238 230 228 222 214 223 226 223 218 219 215 215 211 208 207 208 215 215 212 216 220 219 222 224 226 227 230 227 226 226 228 228 229 231
Height
10446 10438 10433 10423 10420 10420 10418 10421 10429 10445 10447 10451 10473 10485 10498 10503 10508 10530 10541 10549 10564 10581 10589 10601 10613 10626 10639 10654 10666 10675 10683 10692 10703 10714 10723 10729 10734 10743 10753 10763 10764 10773 10774 10779
10419 10417 10407 10400 10392 10391 10389 10392 10401 10408 10420 10420 10444 10462 10475 10483 10497 10504 10518 10527 10541 10555 10570 10583 10593 10607 10623 10639 10650 10660 10669 10680 10689 10700 10708 10717 10725 10733 10743 10750 10752 10765 10766 10770
10405 10389 10379 10376 10366 10365 10362 10366 10374 10384 10388 10401 10420 10434 10452 10466 10472 10480 10495 10510 10517 10535 10549 10562 10572 10587 10602 10619 10632 10643 10651 10663 10673 10682 10694 10707 10717 10728 10736 10742 10746 10754 10755 10758
10383 10367 10358 10354 10345 10343 10342 10346 10350 10356 10364 10376 10383 10407 10428 10439 10444 10451 10473 10487 10500 10512 10526 10539 10551 10563 10582 10596 10607 10621 10635 10647 10657 10668 10683 10695 10702 10711 10715 10720 10726 10736 10743 10750
10360 10346 10334 10332 10331 10324 10324 10326 10330 10334 10340 10352 10366 10374 10405 10407 10425 10442 10456 10462 10477 10485 10498 10512 10527 10542 10557 10568 10585 10598 10612 10626 10639 10656 10668 10678 10688 10696 10704 10713 10722 10730 10738 10740
10349 10335 10316 10313 10315 10309 10307 10308 10310 10316 10326 10340 10343 10341 10378 10363 10364 10386 10391 10398 10407 10414 10441 10475 10499 10514 10527 10544 10562 10579 10594 10609 10622 10641 10652 10663 10673 10683 10694 10702 10709 10717 10728 10723
10334 10318 10299 10297 10299 10295 10295 10290 10292 10299 10308 10309 10313 10321 10321 10343 10358 10373 10384 10399 10410 10428 10445 10451 10449 10473 10501 10528 10548 10562 10576 10593 10606 10623 10635 10647 10657 10670 10680 10687 10694 10702 10711 10718
10319 10305 10283 10278 10280 10284 10277 10279 10275 10281 10286 10294 10304 10300 10296 10325 10333 10351 10366 10379 10397 10415 10437 10462 10478 10490 10493 10502 10524 10544 10561 10580 10593 10607 10618 10629 10641 10655 10665 10675 10682 10691 10698 10705
10299 10290 10279 10258 10260 10266 10263 10263 10262 10264 10268 10274 10268 10278 10275 10299 10310 10321 10338 10355 10371 10390 10411 10433 10450 10479 10494 10508 10516 10530 10545 10564 10577 10591 10602 10614 10629 10642 10651 10660 10670 10677 10683 10692
10280 10275 10258 10249 10242 10245 10246 10243 10247 10247 10249 10256 10254 10259 10261 10276 10290 10301 10317 10337 10349 10372 10392 10409 10424 10444 10468 10489 10507 10521 10531 10547 10565 10575 10588 10604 10619 10628 10636 10644 10656 10663 10671 10678
10264 10251 10240 10230 10225 10225 10228 10226 10230 10231 10231 10237 10235 10246 10255 10260 10271 10283 10295 10313 10328 10350 10370 10386 10405 10424 10439 10463 10482 10502 10522 10533 10549 10562 10572 10590 10608 10615 10624 10631 10640 10649 10657 10665
10247 10237 10225 10212 10204 10205 10212 10211 10211 10213 10215 10216 10223 10233 10235 10246 10256 10265 10276 10290 10307 10327 10346 10364 10383 10406 10427 10448 10466 10484 10504 10521 10533 10545 10554 10574 10596 10604 10611 10622 10627 10636 10643 10651
10228 10219 10209 10195 10190 10190 10191 10194 10194 10195 10197 10199 10207 10225 10224 10232 10242 10248 10260 10271 10287 10305 10325 10345 10363 10388 10411 10430 10445 10464 10484 10500 10513 10528 10542 10558 10575 10589 10596 10603 10610 10621 10630 10640
10213 10201 10192 10182 10176 10175 10175 10181 10178 10180 10183 10195 10197 10206 10208 10220 10226 10232 10243 10256 10272 10289 10307 10328 10345 10371 10391 10410 10427 10446 10467 10485 10502 10518 10529 10547 10560 10572 10584 10591 10597 10606 10616 10624
10200 10189 10178 10169 10163 10161 10162 10161 10161 10165 10173 10182 10184 10190 10194 10204 10211 10219 10230 10244 10256 10270 10288 10311 10331 10352 10374 10394 10410 10431 10454 10463 10483 10502 10516 10534 10541 10554 10566 10578 10585 10592 10600 10611
10189 10176 10167 10158 10152 10149 10148 10147 10152 10155 10163 10168 10172 10178 10185 10192 10199 10208 10219 10229 10242 10255 10274 10297 10316 10338 10359 10377 10395 10415 10432 10444 10463 10477 10498 10513 10520 10538 10552 10562 10572 10577 10585 10596
10182 10169 10159 10150 10142 10138 10139 10138 10143 10143 10149 10155 10160 10167 10175 10183 10190 10199 10208 10219 10227 10238 10258 10281 10299 10321 10339 10358 10377 10396 10413 10428 10447 10464 10478 10495 10506 10521 10534 10545 10552 10561 10571 10579
10175 10164 10152 10144 10137 10132 10131 10130 10130 10132 10139 10145 10151 10156 10163 10172 10180 10187 10196 10206 10215 10228 10248 10267 10284 10300 10319 10338 10355 10377 10395 10414 10430 10452 10465 10476 10483 10497 10509 10525 10538 10544 10555 10563
10165 10158 10149 10139 10133 10129 10127 10126 10123 10125 10133 10139 10143 10148 10155 10162 10171 10179 10186 10197 10207 10217 10239 10249 10268 10286 10301 10322 10344 10361 10379 10398 10414 10429 10443 10453 10462 10476 10492 10505 10518 10528 10540 10550
10167 10151 10144 10137 10129 10124 10120 10119 10115 10115 10126 10131 10134 10141 10146 10153 10163 10169 10178 10186 10198 10208 10225 10242 10260 10273 10294 10308 10324 10342 10362 10378 10397 10410 10424 10437 10446 10459 10475 10488 10497 10510 10523 10533
10167 10152 10140 10133 10126 10118 10115 10112 10111 10111 10116 10121 10127 10131 10137 10144 10153 10159 10170 10178 10189 10201 10215 10229 10246 10263 10280 10295 10310 10325 10341 10359 10375 10390 10409 10420 10433 10442 10457 10470 10480 10492 10504 10513
10163 10150 10137 10128 10121 10116 10109 10106 10105 10108 10106 10109 10114 10121 10125 10134 10143 10150 10160 10167 10177 10189 10204 10214 10230 10249 10270 10286 10299 10309 10331 10342 10356 10367 10386 10403 10415 10428 10440 10450 10460 10474 10487 10493
10156 10145 10133 10124 10117 10111 10105 10100 10098 10096 10099 10104 10107 10111 10118 10127 10136 10144 10152 10160 10170 10179 10192 10204 10215 10233 10251 10270 10283 10298 10304 10328 10339 10354 10363 10378 10394 10406 10418 10432 10441 10456 10464 10475
10155 10142 10131 10122 10114 10106 10101 10095 10091 10090 10090 10092 10097 10102 10107 10115 10124 10132 10143 10152 10163 10171 10183 10194 10206 10221 10239 10252 10268 10283 10301 10314 10330 10339 10348 10360 10371 10382 10396 10406 10420 10430 10441 10451
10146 10134 10126 10116 10107 10102 10095 10091 10086 10083 10082 10084 10088 10093 10094 10105 10110 10119 10130 10140 10151 10159 10170 10184 10196 10209 10222 10238 10254 10267 10278 10288 10307 10305 10329 10341 10357 10369 10376 10388 10394 10405 10413 10424
10141 10128 10117 10109 10102 10093 10090 10086 10082 10077 10075 10076 10079 10084 10091 10093 10100 10109 10117 10126 10137 10146 10154 10168 10179 10189 10202 10216 10236 10247 10256 10273 10285 10299 10312 10328 10337 10347 10361 10370 10381 10388 10393 10407